Farquhar Airport

Jump to: basic info | weather | runways | comments

Related pages: nearby airports | nearby navaids | notams | map

Basic information (top)

Codes: FSFA
Location: lon -10.109600, lat 51.176102, elev 10 ft / 3 m msl
Status: small_airport

Weather (top)

Current conditions for Prince Said Ibrahim International Airport 474nm (878km) W (rec'd 2014/08/20 15:00Z):

FMCH 201500Z 20005KT 9999 FEW025 28/19 Q1017 NOSIG

Airport forecast for Prince Said Ibrahim International Airport 474nm (878km) W (rec'd 2014/08/20 18:00Z):

TAF FMCH 201700Z 2018/2124 10004KT 9999 FEW020 SCT030 
      BECMG 2105/2107 22012KT PROB30 
      TEMPO 2110/2114 SHRA SCT030TCU SCT030 
      BECMG 2118/2120 VRB03KT

Runways (top)

13/31: 3,035 x 75 ft (925 x 23 m) — paved — not lighted

Latest comments (top)

No comments yet for Farquhar Airport

More... (top)

See also NOTAMs and nearby airports and navaids, or visit the Farquhar Airport page at the main OurAirports website..